XIAOXIANG 3 (43944 NORAD) Tracking and Keplerian Element Data

This shows tracking and keplerian element data for the satellite.

Feedback or suggestion? Click here.




ElementValue
Catalog43944
NameXIAOXIANG 3
Epoch Orbit25448
Epoch Day239.12789833
Epoch Year2023
RAAN342.5481
Inclination97.4956
Eccentricity0.0008297
Argument of Perigee219.788
Mean Anonmoly140.276
Mean Motion15.43929101
Decay Rate0.00056347
L11 43944U 19005C 23239.12789833 .00056347 00000+0 12325-2 0 9998
L22 43944 97.4956 342.5481 0008297 219.7880 140.2760 15.43929101254482



Live tracking and technical data element details for XIAOXIANG 3 (NORAD 43944). XIAOXIANG 3 can be tracked NOW for your location showing map with azimuth and elevation plus other details from your city location.







IsCatalogInMostPopularTable: catalog: 43944, numindb: 347
Update: records affected: 1



GetName: 43944 XIAOXIANG 3

Hit Count: updated at: Thu, 15 May 2025 20:16:47 GMT